Location: Helstorf
(52.5868°N, 9.5862°E)
Time: 11:50:57
(UTC+00:00)

Cosmos 2333 Rocket - Pass Details

Date: 15 May 2026
Orbit: 840 x 862 km, 70.8° (Epoch: 6 June)

Event Time Altitude Azimuth Distance (km) Brightness Sun altitude
Rises 21:34:47 0° 321° (NW) 3,424 7.0 -15.0°
Reaches altitude 10° 21:37:41 10° 308° (NW) 2,487 5.6 -15.1°
Maximum altitude 21:42:04 23° 257° (WSW) 1,726 3.9 -15.4°
Drops below altitude 10° 21:46:28 10° 207° (SSW) 2,485 4.3 -15.7°
Enters shadow 21:46:30 10° 206° (SSW) 2,495 4.3 -15.7°
